Orbital Elements at Epoch 2459200.5 (2020-Dec-17.0) TDB
Reference: JPL 24 (heliocentric ecliptic J2000)
Element | Value | Uncertainty (1-sigma) | Units |
e | .1410396515719873 | 2.8282e-08 | |
a | 2.242899557520975 | 5.8505e-09 | au |
q | 1.926561785417252 | 6.451e-08 | au |
i | 1.891371317584214 | 3.3684e-06 | deg |
node | 9.286443934125812 | 9.5996e-05 | deg |
peri | 127.7395436913291 | 9.6844e-05 | deg |
M | 309.9217856109994 | 1.1975e-05 | deg |
tp | 2459371.170908021328 (2021-Jun-05.67090802) | 4.0887e-05 | TDB |
period | 1226.911295406996 3.36 | 4.8005e-06 1.314e-08 | d yr |
n | .2934197454597394 | 1.1481e-09 | deg/d |
Q | 2.559237329624698 | 6.6757e-09 | au |
|
| | Orbit Determination Parameters
Additional Information
|